Location: Unspecified
(43.4680°N, 87.1740°E)
Time: 20:22:56
(UTC+00:00)

Meteor 1-18 Rocket - Pass Details

Date: 17 April 2021
Orbit: 836 x 909 km, 81.2° (Epoch: 12 May)

Event Time Altitude Azimuth Distance (km) Brightness Sun altitude
Exits shadow 20:18:07 76° 128° (SE) 924 4.2 -28.5°
Maximum altitude 20:18:23 78° 98° (E) 918 4.3 -28.5°
Drops below altitude 10° 20:24:12 10° 13° (NNE) 2,551 7.5 -27.8°
Sets 20:26:37 0° 12° (NNE) 3,483 8.4 -27.6°
